Time,TemperatureF,DewpointF,PressureIn,WindDirection,WindDirectionDegrees,WindSpeedMPH,WindSpeedGustMPH,Humidity,HourlyPrecipIn,Conditions,Clouds,dailyrainin,SoftwareType,DateUTC
2013-02-17 00:00:00,9.5,5.1,30.10,NNW,333,0.0,0.0,82,0.00,,,0.01,Wunderground v.1.15,2013-02-17 05:00:00,
2013-02-17 00:05:00,9.2,4.8,30.10,NNW,333,0.0,0.0,82,0.00,,,0.00,Wunderground v.1.15,2013-02-17 05:05:00,
2013-02-17 00:10:00,9.2,4.8,30.10,NNW,333,0.0,0.0,82,0.00,,,0.00,Wunderground v.1.15,2013-02-17 05:10:00,
2013-02-17 00:15:00,9.0,4.6,30.10,NNW,333,0.0,0.0,82,0.00,,,0.00,Wunderground v.1.15,2013-02-17 05:15:00,
2013-02-17 00:20:00,8.8,4.4,30.10,NNW,333,0.0,0.0,82,0.00,,,0.00,Wunderground v.1.15,2013-02-17 05:20:00,
2013-02-17 00:25:00,8.6,4.2,30.10,NNW,333,0.0,0.0,82,0.00,,,0.00,Wunderground v.1.15,2013-02-17 05:25:00,
2013-02-17 00:30:00,8.3,3.9,30.10,NNW,333,0.0,0.0,82,0.00,,,0.00,Wunderground v.1.15,2013-02-17 05:30:00,
2013-02-17 00:35:00,8.1,3.7,30.10,NNW,333,0.0,0.0,82,0.00,,,0.00,Wunderground v.1.15,2013-02-17 05:35:00,
2013-02-17 00:40:00,7.7,3.4,30.10,NNW,333,0.0,0.0,82,0.00,,,0.00,Wunderground v.1.15,2013-02-17 05:40:00,
2013-02-17 00:45:00,7.6,3.3,30.10,NNW,333,0.0,0.0,82,0.00,,,0.00,Wunderground v.1.15,2013-02-17 05:45:00,
2013-02-17 00:50:00,7.6,3.3,30.10,NNW,333,0.0,0.0,82,0.00,,,0.00,Wunderground v.1.15,2013-02-17 05:50:00,
2013-02-17 01:00:00,7.0,2.4,30.10,NNW,333,0.0,0.0,81,0.00,,,0.00,Wunderground v.1.15,2013-02-17 06:00:00,
2013-02-17 01:05:00,6.7,2.1,30.10,NNW,333,0.0,0.0,81,0.00,,,0.00,Wunderground v.1.15,2013-02-17 06:05:00,
2013-02-17 01:15:00,6.5,1.9,30.11,NNW,333,0.0,0.0,81,0.00,,,0.00,Wunderground v.1.15,2013-02-17 06:15:00,
2013-02-17 01:20:00,6.3,1.7,30.11,NNW,333,0.0,0.0,81,0.00,,,0.00,Wunderground v.1.15,2013-02-17 06:20:00,
2013-02-17 01:25:00,6.3,1.7,30.11,NNW,333,0.0,0.0,81,0.00,,,0.00,Wunderground v.1.15,2013-02-17 06:25:00,
2013-02-17 01:35:00,6.3,2.0,30.11,NNW,333,0.0,0.0,82,0.00,,,0.00,Wunderground v.1.15,2013-02-17 06:35:00,
2013-02-17 01:40:00,6.5,2.2,30.11,NNW,333,0.0,0.0,82,0.00,,,0.00,Wunderground v.1.15,2013-02-17 06:40:00,
2013-02-17 01:45:00,6.3,1.7,30.11,NNW,333,0.0,0.0,81,0.00,,,0.00,Wunderground v.1.15,2013-02-17 06:45:00,
2013-02-17 01:50:00,6.1,1.5,30.11,NNW,333,0.0,0.0,81,0.00,,,0.00,Wunderground v.1.15,2013-02-17 06:50:00,
2013-02-17 02:00:00,5.8,1.2,30.11,NNW,333,0.0,0.0,81,0.00,,,0.00,Wunderground v.1.15,2013-02-17 07:00:00,
2013-02-17 02:05:00,5.4,0.8,30.11,NNW,333,0.0,0.0,81,0.00,,,0.00,Wunderground v.1.15,2013-02-17 07:05:00,
2013-02-17 02:15:00,4.8,0.2,30.10,NNW,333,0.0,0.0,81,0.00,,,0.00,Wunderground v.1.15,2013-02-17 07:15:00,
2013-02-17 02:20:00,4.7,-0.1,30.10,NNW,333,0.0,0.0,80,0.00,,,0.00,Wunderground v.1.15,2013-02-17 07:20:00,
2013-02-17 02:25:00,4.5,-0.3,30.10,NNW,333,0.0,0.0,80,0.00,,,0.00,Wunderground v.1.15,2013-02-17 07:25:00,
2013-02-17 02:35:00,3.9,-0.9,30.11,NNW,333,0.0,0.0,80,0.00,,,0.00,Wunderground v.1.15,2013-02-17 07:35:00,
2013-02-17 02:40:00,3.7,-1.1,30.11,NNW,333,0.0,0.0,80,0.00,,,0.00,Wunderground v.1.15,2013-02-17 07:40:00,
2013-02-17 02:45:00,3.5,-1.3,30.11,NNW,333,0.0,0.0,80,0.00,,,0.00,Wunderground v.1.15,2013-02-17 07:45:00,
2013-02-17 02:50:00,3.4,-1.4,30.11,NNW,333,0.0,0.0,80,0.00,,,0.00,Wunderground v.1.15,2013-02-17 07:50:00,
2013-02-17 03:00:00,3.0,-1.8,30.12,NNW,333,0.0,0.0,80,0.00,,,0.00,Wunderground v.1.15,2013-02-17 08:00:00,
2013-02-17 03:05:00,2.8,-2.0,30.12,NNW,333,0.0,0.0,80,0.00,,,0.00,Wunderground v.1.15,2013-02-17 08:05:00,
2013-02-17 03:15:00,2.6,-2.2,30.12,NNW,333,0.0,0.0,80,0.00,,,0.00,Wunderground v.1.15,2013-02-17 08:15:00,
2013-02-17 03:20:00,2.6,-2.2,30.12,NNW,333,0.0,0.0,80,0.00,,,0.00,Wunderground v.1.15,2013-02-17 08:20:00,
2013-02-17 03:25:00,2.4,-2.4,30.12,NNW,333,0.0,0.0,80,0.00,,,0.00,Wunderground v.1.15,2013-02-17 08:25:00,
2013-02-17 03:35:00,2.2,-2.6,30.12,NNW,333,0.0,0.0,80,0.00,,,0.00,Wunderground v.1.15,2013-02-17 08:35:00,
2013-02-17 03:40:00,2.0,-3.0,30.12,NNW,333,0.0,0.0,79,0.00,,,0.00,Wunderground v.1.15,2013-02-17 08:40:00,
2013-02-17 03:45:00,1.7,-3.3,30.12,NNW,333,0.0,0.0,79,0.00,,,0.00,Wunderground v.1.15,2013-02-17 08:45:00,
2013-02-17 03:55:00,1.3,-3.7,30.12,NNW,333,0.0,0.0,79,0.00,,,0.00,Wunderground v.1.15,2013-02-17 08:55:00,
2013-02-17 04:00:00,1.1,-3.9,30.13,NNW,333,0.0,0.0,79,0.00,,,0.00,Wunderground v.1.15,2013-02-17 09:00:00,
2013-02-17 04:05:00,1.1,-3.9,30.13,NNW,333,0.0,0.0,79,0.00,,,0.00,Wunderground v.1.15,2013-02-17 09:05:00,
2013-02-17 04:15:00,0.7,-4.3,30.13,NNW,333,0.0,0.0,79,0.00,,,0.00,Wunderground v.1.15,2013-02-17 09:15:00,
2013-02-17 04:20:00,0.7,-4.3,30.13,NNW,333,0.0,0.0,79,0.00,,,0.00,Wunderground v.1.15,2013-02-17 09:20:00,
2013-02-17 04:25:00,0.7,-4.3,30.13,NNW,333,0.0,0.0,79,0.00,,,0.00,Wunderground v.1.15,2013-02-17 09:25:00,
2013-02-17 04:35:00,0.7,-4.3,30.13,NNW,333,0.0,0.0,79,0.00,,,0.00,Wunderground v.1.15,2013-02-17 09:35:00,
2013-02-17 04:40:00,0.5,-4.5,30.13,NNW,333,0.0,0.0,79,0.00,,,0.00,Wunderground v.1.15,2013-02-17 09:40:00,
2013-02-17 04:45:00,0.3,-4.9,30.13,NNW,333,0.0,0.0,78,0.00,,,0.00,Wunderground v.1.15,2013-02-17 09:45:00,
2013-02-17 04:55:00,0.1,-5.1,30.13,NNW,333,0.0,0.0,78,0.00,,,0.00,Wunderground v.1.15,2013-02-17 09:55:00,
2013-02-17 05:00:00,0.0,-5.2,30.13,NNW,333,0.0,0.0,78,0.00,,,0.00,Wunderground v.1.15,2013-02-17 10:00:00,
2013-02-17 05:05:00,0.0,-5.2,30.13,NNW,333,0.0,0.0,78,0.00,,,0.00,Wunderground v.1.15,2013-02-17 10:05:00,
2013-02-17 05:15:00,-0.2,-5.4,30.14,NNW,333,0.0,0.0,78,0.00,,,0.00,Wunderground v.1.15,2013-02-17 10:15:00,
2013-02-17 05:20:00,-0.2,-5.4,30.14,NNW,333,0.0,0.0,78,0.00,,,0.00,Wunderground v.1.15,2013-02-17 10:20:00,
2013-02-17 05:30:00,0.0,-5.2,30.14,NNW,333,0.0,0.0,78,0.00,,,0.00,Wunderground v.1.15,2013-02-17 10:30:00,
2013-02-17 05:40:00,0.1,-5.1,30.14,NNW,333,0.0,0.0,78,0.00,,,0.00,Wunderground v.1.15,2013-02-17 10:40:00,
2013-02-17 05:45:00,0.0,-5.2,30.14,NNW,333,0.0,0.0,78,0.00,,,0.00,Wunderground v.1.15,2013-02-17 10:45:00,
2013-02-17 05:55:00,0.0,-5.2,30.14,NNW,333,0.0,0.0,78,0.00,,,0.00,Wunderground v.1.15,2013-02-17 10:55:00,
2013-02-17 06:00:00,0.0,-5.2,30.15,NNW,333,0.0,0.0,78,0.00,,,0.00,Wunderground v.1.15,2013-02-17 11:00:00,
2013-02-17 06:05:00,0.0,-5.2,30.15,NNW,333,0.0,0.0,78,0.00,,,0.00,Wunderground v.1.15,2013-02-17 11:05:00,
2013-02-17 06:15:00,-0.2,-5.4,30.15,NNW,333,0.0,0.0,78,0.00,,,0.00,Wunderground v.1.15,2013-02-17 11:15:00,
2013-02-17 06:20:00,-0.4,-5.9,30.15,NNW,333,0.0,0.0,77,0.00,,,0.00,Wunderground v.1.15,2013-02-17 11:20:00,
2013-02-17 06:25:00,-0.6,-6.1,30.15,NNW,333,0.0,0.0,77,0.00,,,0.00,Wunderground v.1.15,2013-02-17 11:25:00,
2013-02-17 06:35:00,-0.6,-5.8,30.16,NNW,333,0.0,0.0,78,0.00,,,0.00,Wunderground v.1.15,2013-02-17 11:35:00,
2013-02-17 06:40:00,-0.6,-5.8,30.16,NNW,333,0.0,0.0,78,0.00,,,0.00,Wunderground v.1.15,2013-02-17 11:40:00,
2013-02-17 06:45:00,-0.6,-6.1,30.16,NNW,333,0.0,0.0,77,0.00,,,0.00,Wunderground v.1.15,2013-02-17 11:45:00,
2013-02-17 06:55:00,-0.6,-6.1,30.16,NNW,333,0.0,0.0,77,0.00,,,0.00,Wunderground v.1.15,2013-02-17 11:55:00,
2013-02-17 07:00:00,-0.6,-6.1,30.16,NNW,333,0.0,0.0,77,0.00,,,0.00,Wunderground v.1.15,2013-02-17 12:00:00,
2013-02-17 07:06:00,-0.6,-5.8,30.16,NNW,333,0.0,0.0,78,0.00,,,0.00,Wunderground v.1.15,2013-02-17 12:06:00,
2013-02-17 07:15:00,-0.6,-6.1,30.17,NNW,333,0.0,0.0,77,0.00,,,0.00,Wunderground v.1.15,2013-02-17 12:15:00,
2013-02-17 07:25:00,-0.6,-6.1,30.17,NNW,333,0.0,0.0,77,0.00,,,0.00,Wunderground v.1.15,2013-02-17 12:25:00,
2013-02-17 07:30:00,-0.4,-5.9,30.17,NNW,333,0.0,0.0,77,0.00,,,0.00,Wunderground v.1.15,2013-02-17 12:30:00,
2013-02-17 07:35:00,-0.2,-5.7,30.17,NNW,333,0.0,0.0,77,0.00,,,0.00,Wunderground v.1.15,2013-02-17 12:35:00,
2013-02-17 07:40:00,0.0,-5.2,30.17,NNW,333,0.0,0.0,78,0.00,,,0.00,Wunderground v.1.15,2013-02-17 12:40:00,
2013-02-17 07:50:00,0.7,-4.6,30.17,NNW,333,0.0,0.0,78,0.00,,,0.00,Wunderground v.1.15,2013-02-17 12:50:00,
2013-02-17 07:55:00,1.3,-3.7,30.17,NNW,333,0.0,0.0,79,0.00,,,0.00,Wunderground v.1.15,2013-02-17 12:55:00,
2013-02-17 08:00:00,1.5,-3.8,30.17,NNW,333,0.0,0.0,78,0.00,,,0.00,Wunderground v.1.15,2013-02-17 13:00:00,
2013-02-17 08:05:00,1.8,-3.2,30.17,NNW,333,0.0,0.0,79,0.00,,,0.00,Wunderground v.1.15,2013-02-17 13:05:00,
2013-02-17 08:15:00,2.4,-2.6,30.18,NNW,333,0.0,0.0,79,0.00,,,0.00,Wunderground v.1.15,2013-02-17 13:15:00,
2013-02-17 08:25:00,3.5,-1.3,30.18,NNW,333,0.0,0.0,80,0.00,,,0.00,Wunderground v.1.15,2013-02-17 13:25:00,
2013-02-17 08:30:00,3.9,-1.2,30.18,NNW,333,0.0,0.0,79,0.00,,,0.00,Wunderground v.1.15,2013-02-17 13:30:00,
2013-02-17 08:35:00,4.1,-1.0,30.18,NNW,333,0.0,0.0,79,0.00,,,0.00,Wunderground v.1.15,2013-02-17 13:35:00,
2013-02-17 08:40:00,4.5,-0.3,30.18,NNW,333,0.0,0.0,80,0.00,,,0.00,Wunderground v.1.15,2013-02-17 13:40:00,
2013-02-17 08:50:00,5.2,0.4,30.18,NNW,333,0.0,0.0,80,0.00,,,0.00,Wunderground v.1.15,2013-02-17 13:50:00,
2013-02-17 08:55:00,5.8,1.0,30.18,NNW,333,0.0,0.0,80,0.00,,,0.00,Wunderground v.1.15,2013-02-17 13:55:00,
2013-02-17 09:05:00,7.0,2.4,30.18,North,0,0.0,0.0,81,0.00,,,0.00,Wunderground v.1.15,2013-02-17 14:05:00,
2013-02-17 09:15:00,7.6,2.7,30.18,West,267,0.0,0.0,80,0.00,,,0.00,Wunderground v.1.15,2013-02-17 14:15:00,
2013-02-17 09:25:00,8.8,3.9,30.18,West,267,0.0,0.0,80,0.00,,,0.00,Wunderground v.1.15,2013-02-17 14:25:00,
2013-02-17 09:30:00,9.5,4.8,30.19,West,267,0.0,0.0,81,0.00,,,0.00,Wunderground v.1.15,2013-02-17 14:30:00,
2013-02-17 09:35:00,10.0,5.1,30.19,West,267,0.0,0.0,80,0.00,,,0.00,Wunderground v.1.15,2013-02-17 14:35:00,
2013-02-17 09:45:00,10.5,5.5,30.19,West,267,0.0,0.0,80,0.00,,,0.00,Wunderground v.1.15,2013-02-17 14:45:00,
2013-02-17 09:50:00,11.1,6.1,30.19,West,267,0.0,0.0,80,0.00,,,0.00,Wunderground v.1.15,2013-02-17 14:50:00,
2013-02-17 09:55:00,11.6,6.6,30.19,West,267,0.0,0.0,80,0.00,,,0.00,Wunderground v.1.15,2013-02-17 14:55:00,
2013-02-17 10:00:00,11.6,6.3,30.19,SE,127,0.0,2.0,79,0.00,,,0.00,Wunderground v.1.15,2013-02-17 15:00:00,
2013-02-17 10:05:00,11.6,6.3,30.19,SE,128,1.0,2.0,79,0.00,,,0.00,Wunderground v.1.15,2013-02-17 15:05:00,
2013-02-17 10:15:00,12.1,6.6,30.20,South,179,1.0,2.0,78,0.00,,,0.00,Wunderground v.1.15,2013-02-17 15:15:00,
2013-02-17 10:25:00,12.8,6.9,30.20,SSW,205,1.0,1.0,77,0.00,,,0.00,Wunderground v.1.15,2013-02-17 15:25:00,
2013-02-17 10:30:00,13.1,7.0,30.20,SSW,208,1.0,1.0,76,0.00,,,0.00,Wunderground v.1.15,2013-02-17 15:30:00,
2013-02-17 10:35:00,13.3,6.9,30.20,SSW,213,1.0,1.0,75,0.00,,,0.00,Wunderground v.1.15,2013-02-17 15:35:00,
2013-02-17 10:40:00,13.5,7.0,30.20,SW,217,2.0,2.0,75,0.00,,,0.00,Wunderground v.1.15,2013-02-17 15:40:00,
2013-02-17 10:50:00,14.6,7.8,30.20,SW,219,1.0,1.0,74,0.00,,,0.00,Wunderground v.1.15,2013-02-17 15:50:00,
2013-02-17 10:55:00,14.9,7.5,30.20,SSE,154,1.0,2.0,72,0.00,,,0.00,Wunderground v.1.15,2013-02-17 15:55:00,
2013-02-17 11:00:00,15.1,7.1,30.20,SW,217,2.0,2.0,70,0.00,,,0.00,Wunderground v.1.15,2013-02-17 16:00:00,
2013-02-17 11:06:00,15.2,6.5,30.20,SSE,147,2.0,3.0,68,0.00,,,0.00,Wunderground v.1.15,2013-02-17 16:06:00,
2013-02-17 11:15:00,15.7,6.3,30.20,SE,144,2.0,3.0,66,0.00,,,0.00,Wunderground v.1.15,2013-02-17 16:15:00,
2013-02-17 11:25:00,16.2,5.8,30.20,SW,219,2.0,6.0,63,0.00,,,0.00,Wunderground v.1.15,2013-02-17 16:25:00,
2013-02-17 11:30:00,16.5,6.1,30.20,SSE,158,3.0,4.0,63,0.00,,,0.00,Wunderground v.1.15,2013-02-17 16:30:00,
2013-02-17 11:35:00,17.5,6.3,30.20,SSW,200,2.0,4.0,61,0.00,,,0.00,Wunderground v.1.15,2013-02-17 16:35:00,
2013-02-17 11:45:00,18.4,6.1,30.20,SW,220,3.0,3.0,58,0.00,,,0.00,Wunderground v.1.15,2013-02-17 16:45:00,
2013-02-17 11:50:00,18.1,5.4,30.20,SW,224,3.0,3.0,57,0.00,,,0.00,Wunderground v.1.15,2013-02-17 16:50:00,
2013-02-17 11:55:00,18.1,5.4,30.20,SW,234,4.0,4.0,57,0.00,,,0.00,Wunderground v.1.15,2013-02-17 16:55:00,
2013-02-17 12:00:00,18.1,4.6,30.20,SSW,212,3.0,3.0,55,0.00,,,0.00,Wunderground v.1.15,2013-02-17 17:00:00,
2013-02-17 12:05:00,18.8,5.3,30.20,SSE,148,2.0,3.0,55,0.00,,,0.00,Wunderground v.1.15,2013-02-17 17:05:00,
2013-02-17 12:15:00,19.1,5.6,30.21,WSW,248,2.0,5.0,55,0.00,,,0.00,Wunderground v.1.15,2013-02-17 17:15:00,
2013-02-17 12:20:00,19.2,6.1,30.21,SW,233,2.0,2.0,56,0.00,,,0.00,Wunderground v.1.15,2013-02-17 17:20:00,
2013-02-17 12:25:00,19.2,5.7,30.21,West,268,2.0,2.0,55,0.00,,,0.00,Wunderground v.1.15,2013-02-17 17:25:00,
2013-02-17 12:30:00,19.1,5.2,30.20,West,275,2.0,3.0,54,0.00,,,0.00,Wunderground v.1.15,2013-02-17 17:30:00,
2013-02-17 12:35:00,19.4,5.4,30.20,SSW,212,2.0,3.0,54,0.00,,,0.00,Wunderground v.1.15,2013-02-17 17:35:00,
2013-02-17 12:45:00,19.5,4.3,30.19,SSW,203,3.0,3.0,51,0.00,,,0.00,Wunderground v.1.15,2013-02-17 17:45:00,
2013-02-17 12:50:00,19.7,4.5,30.19,SSE,167,3.0,3.0,51,0.00,,,0.00,Wunderground v.1.15,2013-02-17 17:50:00,
2013-02-17 13:00:00,19.5,3.9,30.19,SSW,199,4.0,6.0,50,0.00,,,0.00,Wunderground v.1.15,2013-02-17 18:00:00,
2013-02-17 13:05:00,19.4,3.3,30.19,SW,219,6.0,6.0,49,0.00,,,0.00,Wunderground v.1.15,2013-02-17 18:05:00,
2013-02-17 13:15:00,20.3,4.2,30.18,SSE,161,3.0,4.0,49,0.00,,,0.00,Wunderground v.1.15,2013-02-17 18:15:00,
2013-02-17 13:20:00,20.8,3.2,30.18,SSW,212,3.0,6.0,46,0.00,,,0.00,Wunderground v.1.15,2013-02-17 18:20:00,
2013-02-17 13:25:00,20.6,3.5,30.18,SSW,192,4.0,6.0,47,0.00,,,0.00,Wunderground v.1.15,2013-02-17 18:25:00,
2013-02-17 13:35:00,21.1,4.0,30.18,SSW,208,3.0,5.0,47,0.00,,,0.00,Wunderground v.1.15,2013-02-17 18:35:00,
2013-02-17 13:40:00,21.4,3.8,30.18,SSW,205,3.0,7.0,46,0.00,,,0.00,Wunderground v.1.15,2013-02-17 18:40:00,
2013-02-17 13:45:00,21.0,3.4,30.17,SSW,192,5.0,7.0,46,0.00,,,0.00,Wunderground v.1.15,2013-02-17 18:45:00,
2013-02-17 13:50:00,21.1,4.0,30.17,South,171,4.0,4.0,47,0.00,,,0.00,Wunderground v.1.15,2013-02-17 18:50:00,
2013-02-17 14:00:00,21.0,4.8,30.17,SSW,208,4.0,4.0,49,0.00,,,0.00,Wunderground v.1.15,2013-02-17 19:00:00,
2013-02-17 14:05:00,21.8,5.1,30.17,SW,216,2.0,6.0,48,0.00,,,0.00,Wunderground v.1.15,2013-02-17 19:05:00,
2013-02-17 14:15:00,22.1,5.4,30.17,SW,216,4.0,7.0,48,0.00,,,0.00,Wunderground v.1.15,2013-02-17 19:15:00,
2013-02-17 14:20:00,22.4,5.6,30.17,SSW,200,4.0,5.0,48,0.00,,,0.00,Wunderground v.1.15,2013-02-17 19:20:00,
2013-02-17 14:25:00,22.5,5.7,30.17,SW,226,3.0,5.0,48,0.00,,,0.00,Wunderground v.1.15,2013-02-17 19:25:00,
2013-02-17 14:35:00,22.7,5.5,30.16,SSW,206,3.0,5.0,47,0.00,,,0.00,Wunderground v.1.15,2013-02-17 19:35:00,
2013-02-17 14:40:00,22.9,6.6,30.16,WSW,247,3.0,3.0,49,0.00,,,0.00,Wunderground v.1.15,2013-02-17 19:40:00,
2013-02-17 14:45:00,23.0,6.2,30.16,SSW,193,4.0,7.0,48,0.00,,,0.00,Wunderground v.1.15,2013-02-17 19:45:00,
2013-02-17 14:50:00,22.9,7.0,30.16,SW,236,4.0,4.0,50,0.00,,,0.00,Wunderground v.1.15,2013-02-17 19:50:00,
2013-02-17 15:00:00,23.5,7.6,30.16,West,263,3.0,5.0,50,0.00,,,0.00,Wunderground v.1.15,2013-02-17 20:00:00,
2013-02-17 15:05:00,23.0,7.1,30.16,SSW,202,4.0,7.0,50,0.00,,,0.00,Wunderground v.1.15,2013-02-17 20:05:00,
2013-02-17 15:15:00,23.0,7.5,30.16,WSW,254,4.0,5.0,51,0.00,,,0.00,Wunderground v.1.15,2013-02-17 20:15:00,
2013-02-17 15:20:00,22.9,7.0,30.16,SW,232,4.0,4.0,50,0.00,,,0.00,Wunderground v.1.15,2013-02-17 20:20:00,
2013-02-17 15:30:00,22.5,7.1,30.16,SE,138,3.0,5.0,51,0.00,,,0.00,Wunderground v.1.15,2013-02-17 20:30:00,
2013-02-17 15:35:00,22.7,7.3,30.16,SW,226,2.0,5.0,51,0.00,,,0.00,Wunderground v.1.15,2013-02-17 20:35:00,
2013-02-17 15:40:00,23.0,8.0,30.16,SE,130,3.0,3.0,52,0.00,,,0.00,Wunderground v.1.15,2013-02-17 20:40:00,
2013-02-17 15:45:00,23.2,7.7,30.15,SSW,210,3.0,3.0,51,0.00,,,0.00,Wunderground v.1.15,2013-02-17 20:45:00,
2013-02-17 15:55:00,23.3,7.8,30.15,SW,215,2.0,5.0,51,0.00,,,0.00,Wunderground v.1.15,2013-02-17 20:55:00,
2013-02-17 16:00:00,23.6,7.7,30.15,South,176,3.0,6.0,50,0.00,,,0.00,Wunderground v.1.15,2013-02-17 21:00:00,
2013-02-17 16:05:00,23.3,7.8,30.15,SW,219,5.0,6.0,51,0.00,,,0.00,Wunderground v.1.15,2013-02-17 21:05:00,
2013-02-17 16:15:00,23.9,7.9,30.15,WSW,239,3.0,5.0,50,0.00,,,0.00,Wunderground v.1.15,2013-02-17 21:15:00,
2013-02-17 16:20:00,24.1,7.7,30.15,South,189,3.0,5.0,49,0.00,,,0.00,Wunderground v.1.15,2013-02-17 21:20:00,
2013-02-17 16:30:00,23.2,7.3,30.15,SSW,193,4.0,4.0,50,0.00,,,0.00,Wunderground v.1.15,2013-02-17 21:30:00,
2013-02-17 16:35:00,23.2,7.3,30.15,SSW,193,4.0,6.0,50,0.00,,,0.00,Wunderground v.1.15,2013-02-17 21:35:00,
2013-02-17 16:40:00,23.3,7.8,30.15,SSW,209,3.0,3.0,51,0.00,,,0.00,Wunderground v.1.15,2013-02-17 21:40:00,
2013-02-17 16:50:00,23.5,8.0,30.15,SSW,209,2.0,3.0,51,0.00,,,0.00,Wunderground v.1.15,2013-02-17 21:50:00,
2013-02-17 16:55:00,23.3,7.8,30.15,SW,216,3.0,3.0,51,0.00,,,0.00,Wunderground v.1.15,2013-02-17 21:55:00,
2013-02-17 17:00:00,23.3,7.8,30.15,SSW,203,2.0,2.0,51,0.00,,,0.00,Wunderground v.1.15,2013-02-17 22:00:00,
2013-02-17 17:05:00,23.2,7.7,30.15,SSW,212,3.0,3.0,51,0.00,,,0.00,Wunderground v.1.15,2013-02-17 22:05:00,
2013-02-17 17:15:00,23.0,7.5,30.15,SSW,200,2.0,3.0,51,0.00,,,0.00,Wunderground v.1.15,2013-02-17 22:15:00,
2013-02-17 17:25:00,22.9,7.4,30.15,SW,216,3.0,6.0,51,0.00,,,0.00,Wunderground v.1.15,2013-02-17 22:25:00,
2013-02-17 17:30:00,22.9,7.9,30.15,SW,230,3.0,3.0,52,0.00,,,0.00,Wunderground v.1.15,2013-02-17 22:30:00,
2013-02-17 17:35:00,22.9,7.9,30.15,SSW,206,2.0,3.0,52,0.00,,,0.00,Wunderground v.1.15,2013-02-17 22:35:00,
2013-02-17 17:40:00,23.0,8.0,30.15,SSW,203,1.0,3.0,52,0.00,,,0.00,Wunderground v.1.15,2013-02-17 22:40:00,
2013-02-17 17:50:00,22.9,8.3,30.14,SW,220,2.0,2.0,53,0.00,,,0.00,Wunderground v.1.15,2013-02-17 22:50:00,
2013-02-17 17:55:00,22.9,8.3,30.14,SSE,162,2.0,2.0,53,0.00,,,0.00,Wunderground v.1.15,2013-02-17 22:55:00,
2013-02-17 18:00:00,22.9,7.9,30.14,SSE,154,1.0,6.0,52,0.00,,,0.00,Wunderground v.1.15,2013-02-17 23:00:00,
2013-02-17 18:06:00,22.9,8.3,30.14,SSE,160,1.0,6.0,53,0.00,,,0.00,Wunderground v.1.15,2013-02-17 23:06:00,
2013-02-17 18:15:00,22.5,7.9,30.14,SSE,165,1.0,1.0,53,0.00,,,0.00,Wunderground v.1.15,2013-02-17 23:15:00,
2013-02-17 18:25:00,22.2,8.1,30.14,South,169,1.0,1.0,54,0.00,,,0.00,Wunderground v.1.15,2013-02-17 23:25:00,
2013-02-17 18:30:00,21.9,7.8,30.14,South,169,0.0,1.0,54,0.00,,,0.00,Wunderground v.1.15,2013-02-17 23:30:00,
2013-02-17 18:35:00,21.6,7.9,30.14,South,169,0.0,1.0,55,0.00,,,0.00,Wunderground v.1.15,2013-02-17 23:35:00,
2013-02-17 18:40:00,21.4,7.7,30.14,South,171,0.0,0.0,55,0.00,,,0.00,Wunderground v.1.15,2013-02-17 23:40:00,
2013-02-17 18:50:00,21.1,7.8,30.14,South,171,0.0,0.0,56,0.00,,,0.00,Wunderground v.1.15,2013-02-17 23:50:00,
2013-02-17 18:55:00,21.0,8.1,30.14,South,171,0.0,0.0,57,0.00,,,0.00,Wunderground v.1.15,2013-02-17 23:55:00,
2013-02-17 19:00:00,20.6,7.8,30.13,South,171,0.0,0.0,57,0.00,,,0.00,Wunderground v.1.15,2013-02-18 00:00:00,
2013-02-17 19:05:00,20.3,7.9,30.13,South,171,0.0,0.0,58,0.00,,,0.00,Wunderground v.1.15,2013-02-18 00:05:00,
2013-02-17 19:15:00,20.0,8.0,30.13,South,171,0.0,0.0,59,0.00,,,0.00,Wunderground v.1.15,2013-02-18 00:15:00,
2013-02-17 19:25:00,19.7,8.0,30.13,South,171,0.0,1.0,60,0.00,,,0.00,Wunderground v.1.15,2013-02-18 00:25:00,
2013-02-17 19:30:00,19.5,7.9,30.12,South,171,0.0,0.0,60,0.00,,,0.00,Wunderground v.1.15,2013-02-18 00:30:00,
2013-02-17 19:35:00,19.5,7.9,30.12,SSE,151,0.0,0.0,60,0.00,,,0.00,Wunderground v.1.15,2013-02-18 00:35:00,
2013-02-17 19:45:00,19.2,7.9,30.13,SSE,158,0.0,0.0,61,0.00,,,0.00,Wunderground v.1.15,2013-02-18 00:45:00,
2013-02-17 19:50:00,19.1,7.8,30.13,SSE,158,0.0,0.0,61,0.00,,,0.00,Wunderground v.1.15,2013-02-18 00:50:00,
2013-02-17 19:55:00,19.1,7.8,30.13,SSE,158,0.0,0.0,61,0.00,,,0.00,Wunderground v.1.15,2013-02-18 00:55:00,
2013-02-17 20:00:00,18.9,8.0,30.13,SSE,158,0.0,0.0,62,0.00,,,0.00,Wunderground v.1.15,2013-02-18 01:00:00,
2013-02-17 20:05:00,18.8,7.9,30.13,SSE,158,0.0,0.0,62,0.00,,,0.00,Wunderground v.1.15,2013-02-18 01:05:00,
2013-02-17 20:15:00,18.6,8.1,30.12,SSE,158,0.0,0.0,63,0.00,,,0.00,Wunderground v.1.15,2013-02-18 01:15:00,
2013-02-17 20:20:00,18.6,8.1,30.12,SSE,158,0.0,0.0,63,0.00,,,0.00,Wunderground v.1.15,2013-02-18 01:20:00,
2013-02-17 20:25:00,18.4,8.2,30.12,SSE,158,0.0,0.0,64,0.00,,,0.00,Wunderground v.1.15,2013-02-18 01:25:00,
2013-02-17 20:30:00,18.3,8.1,30.12,SSE,158,0.0,0.0,64,0.00,,,0.00,Wunderground v.1.15,2013-02-18 01:30:00,
2013-02-17 20:35:00,18.3,8.5,30.12,SSE,158,1.0,1.0,65,0.00,,,0.00,Wunderground v.1.15,2013-02-18 01:35:00,
2013-02-17 20:45:00,18.3,8.5,30.12,SSE,154,1.0,1.0,65,0.00,,,0.00,Wunderground v.1.15,2013-02-18 01:45:00,
2013-02-17 20:50:00,18.4,8.2,30.12,SSE,155,1.0,1.0,64,0.00,,,0.00,Wunderground v.1.15,2013-02-18 01:50:00,
2013-02-17 20:55:00,18.4,8.2,30.12,SSE,155,1.0,2.0,64,0.00,,,0.00,Wunderground v.1.15,2013-02-18 01:55:00,
2013-02-17 21:05:00,18.4,8.2,30.12,SSE,155,0.0,0.0,64,0.00,,,0.00,Wunderground v.1.15,2013-02-18 02:05:00,
2013-02-17 21:15:00,18.3,8.1,30.12,SSE,155,1.0,2.0,64,0.00,,,0.00,Wunderground v.1.15,2013-02-18 02:15:00,
2013-02-17 21:20:00,18.4,7.9,30.12,SSE,154,1.0,2.0,63,0.00,,,0.00,Wunderground v.1.15,2013-02-18 02:20:00,
2013-02-17 21:25:00,18.3,7.8,30.12,SSE,162,1.0,2.0,63,0.00,,,0.00,Wunderground v.1.15,2013-02-18 02:25:00,
2013-02-17 21:30:00,18.1,7.6,30.12,SSE,162,1.0,1.0,63,0.00,,,0.00,Wunderground v.1.15,2013-02-18 02:30:00,
2013-02-17 21:40:00,18.0,7.5,30.12,SSE,155,1.0,1.0,63,0.00,,,0.00,Wunderground v.1.15,2013-02-18 02:40:00,
2013-02-17 21:45:00,17.8,7.3,30.12,SSE,155,1.0,2.0,63,0.00,,,0.00,Wunderground v.1.15,2013-02-18 02:45:00,
2013-02-17 21:50:00,17.7,7.2,30.12,SSE,155,0.0,0.0,63,0.00,,,0.00,Wunderground v.1.15,2013-02-18 02:50:00,
2013-02-17 21:55:00,17.5,7.4,30.12,SSE,154,0.0,0.0,64,0.00,,,0.00,Wunderground v.1.15,2013-02-18 02:55:00,
2013-02-17 22:05:00,17.3,7.2,30.12,SSE,154,1.0,2.0,64,0.00,,,0.00,Wunderground v.1.15,2013-02-18 03:05:00,
2013-02-17 22:15:00,17.7,7.6,30.11,SE,131,1.0,1.0,64,0.00,,,0.00,Wunderground v.1.15,2013-02-18 03:15:00,
2013-02-17 22:20:00,17.7,7.6,30.11,SE,131,1.0,1.0,64,0.00,,,0.00,Wunderground v.1.15,2013-02-18 03:20:00,
2013-02-17 22:25:00,17.7,7.6,30.11,SSE,158,1.0,2.0,64,0.00,,,0.00,Wunderground v.1.15,2013-02-18 03:25:00,
2013-02-17 22:30:00,17.8,7.7,30.11,SSE,157,1.0,1.0,64,0.00,,,0.00,Wunderground v.1.15,2013-02-18 03:30:00,
2013-02-17 22:40:00,17.8,7.7,30.11,South,181,1.0,1.0,64,0.00,,,0.00,Wunderground v.1.15,2013-02-18 03:40:00,
2013-02-17 22:45:00,17.8,7.7,30.10,SE,145,1.0,1.0,64,0.00,,,0.00,Wunderground v.1.15,2013-02-18 03:45:00,
2013-02-17 22:50:00,17.8,7.7,30.10,SSE,147,1.0,3.0,64,0.00,,,0.00,Wunderground v.1.15,2013-02-18 03:50:00,
2013-02-17 23:00:00,18.1,7.6,30.10,SSE,152,1.0,1.0,63,0.00,,,0.00,Wunderground v.1.15,2013-02-18 04:00:00,
2013-02-17 23:05:00,18.3,7.8,30.10,SSE,158,2.0,2.0,63,0.00,,,0.00,Wunderground v.1.15,2013-02-18 04:05:00,
2013-02-17 23:15:00,18.6,7.7,30.09,ESE,120,2.0,4.0,62,0.00,,,0.00,Wunderground v.1.15,2013-02-18 04:15:00,
2013-02-17 23:20:00,18.8,7.9,30.09,SSE,155,2.0,2.0,62,0.00,,,0.00,Wunderground v.1.15,2013-02-18 04:20:00,
2013-02-17 23:25:00,18.9,8.0,30.09,SSE,147,2.0,2.0,62,0.00,,,0.00,Wunderground v.1.15,2013-02-18 04:25:00,
2013-02-17 23:35:00,18.9,8.0,30.09,South,175,2.0,2.0,62,0.00,,,0.00,Wunderground v.1.15,2013-02-18 04:35:00,
2013-02-17 23:40:00,18.9,8.0,30.09,SSE,151,2.0,3.0,62,0.00,,,0.00,Wunderground v.1.15,2013-02-18 04:40:00,
2013-02-17 23:45:00,19.1,7.8,30.09,SSE,150,2.0,3.0,61,0.00,,,0.00,Wunderground v.1.15,2013-02-18 04:45:00,
2013-02-17 23:55:00,18.9,7.7,30.09,SSE,154,1.0,4.0,61,0.00,,,0.00,Wunderground v.1.15,2013-02-18 04:55:00,